Retour au catalogue

DIRECTV 12

ActifCommunicationsGEO
NORAD 36131·PAYLOAD·🇺🇸 United States

Lancé Dec 29, 2009 depuis Baikonur Cosmodrome

Loading…

TLE

FraisSource: Space-Track

Époque: Sep 14, 2026, 13:18 UTC

1 36131U 09075A   26257.55477748 -.00000111  00000-0  00000-0 0  9998
2 36131   0.0184   8.3271 0000414  83.6093 358.5927  1.00270903 47459

Suivez DIRECTV 12 en temps réel avec AllMySat

Download on the App Store